Regional Weather Roundup
Issued by NWS

Home | Current Version | Previous Version | Graphics & Text | Print | Product List | Glossary On
Versions: 1 2 3 4 5 6 7 8 9 10 11 12 13 14 15 16 17 18 19 20 21 22 23 24 25 26 27 28 29 30 31 32 33 34 35 36 37 38 39 40 41 42 43 44 45 46 47 48 49 50
000
ASUS43 KIND 250909
RWRIN

WEATHER ROUNDUP FOR INDIANA
NATIONAL WEATHER SERVICE INDIANAPOLIS IN
500 AM EDT SAT OCT 25 2014

NOTE: "FAIR" INDICATES FEW OR NO CLOUDS BELOW 12,000 FEET WITH NO
SIGNIFICANT WEATHER AND/OR OBSTRUCTIONS TO VISIBILITY.

* - STATION DOES NOT REPORT WEATHER SUCH AS PRECIPITATION OR FOG.

+ - STATION NOT QUALITY CONTROLLED BY THE NATIONAL WEATHER SERVICE.
    USE DATA WITH CAUTION...ESPECIALLY DEWPOINT AND RELATIVE
    HUMIDITY OBSERVATIONS.

INZ001>003-010>013-019-020-251000-
NORTHWEST INDIANA

CITY           SKY/WX    TMP DP  RH WIND       PRES   REMARKS
GARY /AIRPORT/ PTCLDY    56  53  87 SW3       29.91R
KNOX *+        MOCLDY    53  49  88 SW5       29.90S
LA PORTE +       N/A     47  47 100 CALM      29.90F FOG
MICHIGAN CITY+ PTCLDY    52  50  93 SW3       29.90S
MONTICELLO +   MOCLDY    55  53  92 SW7       29.91F
RENSSELAER +   PTCLDY    55  54  94 SW7       29.91F
VALPARAISO     CLEAR     52  50  93 SW6       29.91S

$$

LMZ046-743>745-251000-
SOUTHERN LAKE MICHIGAN

STATION/POSITION TIME  TEMP WIND        PRES
                       AIR  DIR/SP/G
                 (UTC) (F)  (DEG/KT/KT) (MB)
MICHIGAN CITY    0900   56  180/ 11/ 13   N/A

$$

INZ004-005-014>016-021>024-251000-
NORTH CENTRAL INDIANA

CITY           SKY/WX    TMP DP  RH WIND       PRES   REMARKS
GOSHEN         CLOUDY    55  51  86 SW8       29.90F
LOGANSPORT +   MOCLDY    54  50  87 S7        29.92F
PERU/GRISSOM   MOCLDY    54  54 100 S8        29.92F
ROCHESTER +    MOCLDY    57  54  88 S6        29.91F
SOUTH BEND     PTCLDY    55  50  83 SW9       29.90F
WARSAW +       CLOUDY    55  52  88 SW3       29.91S

$$

INZ006>009-017-018-025>027-251000-
NORTHEAST INDIANA

CITY           SKY/WX    TMP DP  RH WIND       PRES   REMARKS
ANGOLA *+      CLOUDY    52  48  87 CALM      29.89F
AUBURN +       CLOUDY    54  50  87 SW3       29.92F
FORT WAYNE     CLOUDY    53  50  89 SW8       29.94F
HUNTINGTON +   CLOUDY   N/A N/A N/A S3        29.93F

$$

INZ028-029-035-036-043>045-051>053-251000-
WEST CENTRAL INDIANA

CITY           SKY/WX    TMP DP  RH WIND       PRES   REMARKS
GREENCASTLE +  CLOUDY    55  52  88 CALM      29.97F
LAFAYETTE      PTCLDY    55  51  86 SW6       29.93F
TERRE HAUTE    CLOUDY    58  52  80 S7        29.96F

$$

INZ030>032-037>040-046>048-054>057-064-065-251000-
CENTRAL INDIANA

CITY           SKY/WX    TMP DP  RH WIND       PRES   REMARKS
CP ATTERBURY + PTCLDY    45  45 100 E3        29.98F FOG
FRANKFORT +    CLOUDY    55  55 100 S3        29.95F
INDIANAPOLIS   MOCLDY    52  49  89 S6        29.96F
-EAGLE CREEK   MOCLDY    51  50  96 S5        29.96F
KOKOMO *+      CLOUDY    54  50  87 S6        29.94F
MARION +       CLOUDY    52  49  92 S5        29.95F FOG
MT COMFORT *+  MOCLDY    52  52 100 S6        29.97F
SHELBYVILLE    MOCLDY    51  47  86 S6        29.97F FOG
ZIONSVILLE +   CLOUDY    55  50  84 SW6       29.96S

$$

INZ033-034-041-042-049-050-058-059-251000-
EAST CENTRAL INDIANA

CITY           SKY/WX    TMP DP  RH WIND       PRES   REMARKS
MUNCIE         CLOUDY    55  50  83 S7        29.95F

$$

INZ060-061-067>069-081>083-085>088-251000-
SOUTHWEST INDIANA

CITY           SKY/WX    TMP DP  RH WIND       PRES   REMARKS
EVANSVILLE     CLOUDY    57  53  86 SW7       30.01F
HUNTINGBURG *+ CLOUDY    54  48  82 SW6       30.02F
WASHINGTON +   CLOUDY    56  54  92 S7        29.99S

$$

INZ062-063-066-070>080-084-089>092-251000-
SOUTH CENTRAL AND SOUTHEAST INDIANA

CITY           SKY/WX    TMP DP  RH WIND       PRES   REMARKS
BEDFORD +      MOCLDY    50  48  93 S3        30.00
BLOOMINGTON    CLOUDY    55  52  89 SW6       29.99F
NORTH VERNON + MOCLDY    50  50 100 S3        30.00F
SEYMOUR +      MOCLDY    50  48  93 SE3       30.00

$$




USA.gov is the U.S. government's official web portal to all federal, state and local government web resources and services.